Location: *
(46.4000°N, 12.6667°E)
Time: 04:54:04
(UTC+00:00)

Envisat - Pass Details

Date: 07 December 2021
Orbit: 764 x 766 km, 98.2° (Epoch: 16 January)

Event Time Altitude Azimuth Distance (km) Brightness Sun altitude
Rises 16:37:30 0° 212° (SSW) 3,221 7.1 -12.4°
Reaches altitude 10° 16:40:43 10° 234° (SW) 2,301 6.8 -12.9°
Maximum altitude 16:43:45 16° 271° (W) 1,929 6.1 -13.4°
Drops below altitude 10° 16:46:48 10° 308° (NW) 2,312 5.9 -13.9°
Sets 16:50:04 0° 330° (NNW) 3,244 6.4 -14.4°
